{"data":{"norad_id":43766,"intl_designator":"2018-099J","name":"SPAWAR-CAL-O","alt_names":[],"object_type":"PAYLOAD","status":"ACTIVE","operator":null,"country":"US","launch_date":"2018-12-03","launch_site_code":"AFWTR","launch_vehicle":null,"mission":null,"orbit_class":"UNKNOWN","rcs_meters":null,"size_class":null,"mass_kg":null,"dimensions":null,"purposes":[],"wikipedia_slug":null,"has_3d_model":false,"image_url":null,"decayed_at":null,"tle_current":{"epoch":"2026-09-20T03:09:43.704576Z","epoch_age_seconds":86731,"freshness":"FRESH","line1":"1 43766U 18099J   26263.13175584  .00014872  00000+0  39466-3 0  9998","line2":"2 43766  97.4228 328.0814 0006038 315.0210  45.0546 15.38381934428109","mean_motion":15.38381934,"eccentricity":0.0006038,"inclination_deg":97.4228,"raan_deg":328.0814,"arg_perigee_deg":315.021,"mean_anomaly_deg":45.0546,"bstar":0.00039466,"rev_number":42810,"period_min":93.604843386051,"perigee_km":446.77026018274,"apogee_km":455.01699757017,"semimajor_km":6829.0306288765,"source":"CELESTRAK","updated_at":"2026-09-20T09:00:14.401637Z"}}}